Regional Weather Roundup
Issued by NWS Northern Indiana

Home | Current Version | Previous Version | Text Only | Print | Product List | Glossary Off
Versions: 1 2 3 4 5 6 7 8 9 10 11 12 13 14 15 16 17 18 19 20 21 22 23 24 25 26 27 28 29 30 31 32 33 34 35 36 37 38 39 40 41 42 43 44 45 46 47 48 49 50

000
ASUS43 KIWX 070810
RWRIWX

KIWX WEATHER ROUNDUP
NATIONAL WEATHER SERVICE NORTHERN INDIANA
300 AM EST SUN FEB 07 2016

NOTE: "FAIR" INDICATES FEW OR NO CLOUDS BELOW 12,000 FEET WITH NO
SIGNIFICANT WEATHER AND/OR OBSTRUCTIONS TO VISIBILITY.

* THESE STATIONS ARE NOT UNDER NWS QUALITY CONTROL. THEY ALSO MAY NOT
  REPORT WEATHER SUCH AS PRECIPITATION OR FOG.

INZ001>027-070900-
NORTHERN INDIANA

CITY           SKY/WX    TMP DP  RH WIND       PRES   REMARKS
GARY*          MOCLDY    37  30  77 S5        30.05S
VALPARAISO     CLOUDY    33  28  81 SW8       30.05F WCI  26
MICHIGAN CITY* CLOUDY    34  30  86 S7        30.05F WCI  28
LAPORTE*       CLOUDY    33  31  93 SW3       30.05F
SOUTH BEND     PTCLDY    31  26  82 S6        30.05F WCI  25
GOSHEN         PTCLDY    34  26  72 S8        30.06S WCI  27
MONTICELLO*    CLEAR     32  23  69 S6        30.08S WCI  26
LOGANSPORT*    CLEAR     30  23  74 S8        30.09F WCI  23
ROCHESTER*     CLEAR     37  25  60 SW8       30.07F
WARSAW*        CLEAR     32  27  80 CALM      30.06F
FORT WAYNE     PTCLDY    31  25  78 S9        30.09F WCI  23
HUNTINGTON*    CLEAR     33  23  67 S5        30.09S WCI  28
PERU/GRISSOM   CLEAR     32  26  79 SW10      30.07F WCI  24
MARION*        CLEAR     32  20  61 S9        30.11S WCI  24

$$
INZ028>050-070900-
CENTRAL INDIANA

CITY           SKY/WX    TMP DP  RH WIND       PRES   REMARKS
LAFAYETTE      CLEAR     32  24  72 CALM      30.10S
KOKOMO*          N/A     34  27  75 S12       30.09F WCI  25
MUNCIE*        CLEAR     37  25  61 SW8       30.11F
INDIANAPOLIS   CLEAR     33  23  66 SW8       30.12S WCI  26

$$
MIZ043>046-050>051-056>058-064>065-071>073-077>080-070900-
SOUTHWEST LOWER MICHIGAN

CITY           SKY/WX    TMP DP  RH WIND       PRES   REMARKS
BATTLE CREEK   CLOUDY    32  26  78 S9        30.03F WCI  24
BENTON HARBOR  CLOUDY    35  28  75 S8        30.03F WCI  29
COLDWATER*     CLOUDY    34  27  76 SW7       30.05S WCI  27
HILLSDALE*     MOCLDY    31  26  81 S7        30.05S WCI  24
HOLLAND        PTCLDY    36  29  75 SW12      30.01F
GRAND RAPIDS   CLOUDY    31  27  85 S6        30.01F WCI  25
KALAMAZOO      PTCLDY    32  26  78 S8        30.03F WCI  25
STURGIS*       PTCLDY    32  27  83 SW6       30.04S WCI  26
THREE RIVERS*  FAIR      30  27  88 SW3       30.05F

$$
OHZ001>008-015>018-024>025-070900-
NORTHWEST OHIO

CITY           SKY/WX    TMP DP  RH WIND       PRES   REMARKS
DEFIANCE       MOCLDY    30  24  78 S7        30.10F WCI  23
FINDLAY        CLEAR     33  25  72 S12       30.10F WCI  24
TOLEDO EXPRESS PTCLDY    30  24  78 S7        30.09F WCI  23
TOLEDO METCALF PTCLDY    26  21  81 S7        30.11F WCI  18
LIMA           CLEAR     33  25  72 S9        30.11F WCI  25

$$
AND FOR LAKE MICHIGAN COASTAL AND OPEN LAKE BUOY OBSERVATIONS

STATION/POSITION TEMP    WIND        PRES    VSBY  WAVE
                 AIR SEA DIR/SP/G                  HT/PER
                 (F)     (DEG/KT/KT) (MB)    (MI)  (FT/S)
CALUMET HARBOR    35     200/  6/ 10 1016.6F
MICHIGAN CITY     36     160/ 12/ 15   N/A
BURNS HARBOR      36     190/ 12/ 14 1017.9F
SAINT JOSEPH      36     150/  7/ 12 1017.3F

$$
&&



USA.gov is the U.S. government's official web portal to all federal, state and local government web resources and services.